Location: Home
(42.5358°N, 72.7383°W)
Time: 22:21:00
(UTC-05:00)

Altair - Pass Details

Date: 07 December 2021
Orbit: 1501 x 1683 km, 47.2° (Epoch: 26 January)

Event Time Altitude Azimuth Distance (km) Brightness Sun altitude
Rises 17:02:56 0° 273° (W) 4,758 11.4 -8.3°
Reaches altitude 10° 17:06:06 10° 276° (W) 3,750 10.6 -8.8°
Maximum altitude 17:15:31 66° 358° (N) 1,640 7.6 -10.4°
Enters shadow 17:23:45 14° 79° (E) 3,369 8.6 -11.8°
